Voltar ao catálogo

CZ-6A DEB

AtivoPO
NORAD 61806·DEBRIS·🇨🇳 China

Lançado Aug 6, 2024 de Taiyuan Satellite Launch Center

Loading…

Próximas Passagens (próximas 24 horas)

TLE

AtualizadoSource: Space-Track

Época: Sep 13, 2026, 09:04 UTC

1 61806U 24140ABW 26256.37794189  .00000296  00000-0  23295-3 0  9992
2 61806  88.4887 229.4839 0307698  82.5459 281.0547 13.68822087101182

Acompanhe CZ-6A DEB em tempo real com AllMySat

Download on the App Store